TimeEST,TemperatureF,Dew PointF,Humidity,Sea Level PressureIn,VisibilityMPH,Wind Direction,Wind SpeedMPH,Gust SpeedMPH,PrecipitationIn,Events,Conditions,WindDirDegrees,DateUTC
12:15 AM,23.0,14.0,68,30.07,10.0,Calm,Calm,-,N/A,,Overcast,0,2014-01-18 05:15:00
12:35 AM,23.0,14.0,68,30.07,10.0,Calm,Calm,-,N/A,,Mostly Cloudy,0,2014-01-18 05:35:00
12:55 AM,23.0,14.0,68,30.07,10.0,West,3.5,-,N/A,,Mostly Cloudy,280,2014-01-18 05:55:00
1:15 AM,23.0,14.0,68,30.07,10.0,WNW,5.8,-,N/A,,Overcast,290,2014-01-18 06:15:00
1:35 AM,23.0,14.0,68,30.07,10.0,WNW,6.9,-,N/A,,Overcast,290,2014-01-18 06:35:00
1:55 AM,23.0,14.0,68,30.07,7.0,West,6.9,-,N/A,,Overcast,280,2014-01-18 06:55:00
2:15 AM,21.2,12.2,68,30.07,10.0,West,5.8,-,N/A,,Overcast,280,2014-01-18 07:15:00
2:35 AM,21.2,10.4,63,30.07,10.0,WNW,4.6,-,N/A,,Overcast,290,2014-01-18 07:35:00
2:55 AM,21.2,10.4,63,30.07,10.0,WNW,4.6,-,N/A,,Overcast,290,2014-01-18 07:55:00
3:15 AM,21.2,10.4,63,30.07,10.0,WNW,6.9,-,N/A,,Overcast,290,2014-01-18 08:15:00
3:35 AM,21.2,10.4,63,30.07,10.0,West,6.9,-,N/A,,Overcast,280,2014-01-18 08:35:00
3:55 AM,21.2,8.6,58,30.07,10.0,West,4.6,-,N/A,,Overcast,260,2014-01-18 08:55:00
4:15 AM,21.2,8.6,58,30.06,10.0,West,4.6,-,N/A,,Mostly Cloudy,270,2014-01-18 09:15:00
4:35 AM,21.2,8.6,58,30.07,10.0,West,4.6,-,N/A,,Scattered Clouds,260,2014-01-18 09:35:00
4:55 AM,21.2,8.6,58,30.07,10.0,WSW,4.6,-,N/A,,Mostly Cloudy,250,2014-01-18 09:55:00
5:15 AM,21.2,10.4,63,30.07,10.0,WSW,9.2,-,N/A,,Overcast,240,2014-01-18 10:15:00
5:35 AM,21.2,10.4,63,30.07,10.0,SW,5.8,-,N/A,,Overcast,230,2014-01-18 10:35:00
5:55 AM,21.2,12.2,68,30.06,10.0,WSW,6.9,-,N/A,,Overcast,240,2014-01-18 10:55:00
6:15 AM,21.2,12.2,68,30.07,10.0,SW,5.8,-,N/A,,Overcast,230,2014-01-18 11:15:00
6:35 AM,21.2,12.2,68,30.07,10.0,WSW,5.8,-,N/A,,Overcast,240,2014-01-18 11:35:00
6:55 AM,21.2,12.2,68,30.07,10.0,WSW,9.2,-,N/A,,Overcast,240,2014-01-18 11:55:00
7:15 AM,21.2,12.2,68,30.07,10.0,SW,6.9,-,N/A,,Overcast,220,2014-01-18 12:15:00
7:35 AM,21.2,12.2,68,30.06,10.0,WSW,8.1,-,N/A,,Overcast,240,2014-01-18 12:35:00
7:55 AM,21.2,12.2,68,30.07,10.0,WSW,4.6,-,N/A,,Overcast,240,2014-01-18 12:55:00
8:15 AM,23.0,12.2,63,30.07,10.0,SW,5.8,-,N/A,,Overcast,230,2014-01-18 13:15:00
8:35 AM,23.0,12.2,63,30.08,10.0,SW,5.8,-,N/A,,Overcast,220,2014-01-18 13:35:00
8:55 AM,23.0,12.2,63,30.09,10.0,WSW,8.1,-,N/A,,Overcast,240,2014-01-18 13:55:00
9:15 AM,23.0,14.0,68,30.10,10.0,WSW,6.9,-,N/A,,Overcast,240,2014-01-18 14:15:00
9:35 AM,24.8,14.0,64,30.10,10.0,WSW,5.8,-,N/A,,Overcast,240,2014-01-18 14:35:00
9:55 AM,24.8,14.0,64,30.11,7.0,WSW,8.1,-,N/A,,Overcast,240,2014-01-18 14:55:00
10:15 AM,24.8,15.8,69,30.11,5.0,WSW,8.1,-,N/A,Snow,Light Snow,240,2014-01-18 15:15:00
10:35 AM,26.6,15.8,64,30.11,7.0,WSW,9.2,-,N/A,Snow,Light Snow,240,2014-01-18 15:35:00
10:55 AM,26.6,15.8,64,30.10,10.0,WSW,5.8,-,N/A,,Overcast,250,2014-01-18 15:55:00
11:15 AM,26.6,15.8,64,30.10,10.0,West,6.9,-,N/A,,Overcast,260,2014-01-18 16:15:00
11:35 AM,26.6,14.0,59,30.09,10.0,West,5.8,-,N/A,Snow,Light Snow,260,2014-01-18 16:35:00
11:55 AM,26.6,15.8,64,30.09,10.0,WSW,8.1,-,N/A,,Overcast,240,2014-01-18 16:55:00
12:15 PM,28.4,15.8,59,30.08,10.0,WSW,6.9,-,N/A,Snow,Light Snow,250,2014-01-18 17:15:00
12:35 PM,28.4,15.8,59,30.07,10.0,SW,9.2,-,N/A,,Overcast,220,2014-01-18 17:35:00
12:55 PM,28.4,17.6,64,30.05,10.0,SW,8.1,-,N/A,,Overcast,220,2014-01-18 17:55:00
1:15 PM,28.4,17.6,64,30.04,10.0,SW,6.9,-,N/A,,Overcast,220,2014-01-18 18:15:00
1:35 PM,28.4,17.6,64,30.03,10.0,SW,8.1,-,N/A,,Overcast,220,2014-01-18 18:35:00
1:55 PM,28.4,17.6,64,30.02,10.0,SW,8.1,-,N/A,,Overcast,230,2014-01-18 18:55:00
2:15 PM,30.2,17.6,60,30.01,10.0,WSW,5.8,-,N/A,,Overcast,240,2014-01-18 19:15:00
2:35 PM,30.2,17.6,60,30.01,10.0,SSW,4.6,-,N/A,,Overcast,210,2014-01-18 19:35:00
2:55 PM,30.2,17.6,60,30.00,10.0,SW,5.8,-,N/A,,Overcast,220,2014-01-18 19:55:00
3:15 PM,30.2,17.6,60,29.99,10.0,SW,6.9,-,N/A,,Overcast,230,2014-01-18 20:15:00
3:35 PM,30.2,17.6,60,29.99,10.0,WSW,6.9,-,N/A,,Overcast,240,2014-01-18 20:35:00
3:55 PM,30.2,15.8,55,29.98,10.0,Calm,Calm,-,N/A,,Mostly Cloudy,0,2014-01-18 20:55:00
4:15 PM,30.2,17.6,60,29.98,10.0,South,3.5,-,N/A,,Scattered Clouds,190,2014-01-18 21:15:00
4:35 PM,30.2,17.6,60,29.97,10.0,SE,4.6,-,N/A,,Scattered Clouds,140,2014-01-18 21:35:00
4:55 PM,30.2,17.6,60,29.97,10.0,Calm,Calm,-,N/A,,Scattered Clouds,0,2014-01-18 21:55:00
5:15 PM,30.2,17.6,60,29.98,10.0,Calm,Calm,-,N/A,,Scattered Clouds,0,2014-01-18 22:15:00
5:35 PM,30.2,17.6,60,29.97,10.0,East,3.5,-,N/A,,Mostly Cloudy,90,2014-01-18 22:35:00
5:55 PM,30.2,19.4,64,29.97,10.0,Calm,Calm,-,N/A,,Overcast,0,2014-01-18 22:55:00
6:15 PM,30.2,19.4,64,29.97,10.0,Calm,Calm,-,N/A,,Overcast,0,2014-01-18 23:15:00
6:35 PM,30.2,19.4,64,29.96,10.0,East,3.5,-,N/A,,Overcast,90,2014-01-18 23:35:00
6:55 PM,30.2,19.4,64,29.95,10.0,East,4.6,-,N/A,,Overcast,80,2014-01-18 23:55:00
7:15 PM,30.2,19.4,64,29.94,10.0,East,4.6,-,N/A,,Overcast,90,2014-01-19 00:15:00
7:35 PM,30.2,19.4,64,29.94,10.0,East,4.6,-,N/A,,Overcast,90,2014-01-19 00:35:00
7:55 PM,30.2,19.4,64,29.93,10.0,East,3.5,-,N/A,,Overcast,100,2014-01-19 00:55:00
8:15 PM,30.2,21.2,69,29.93,4.0,Calm,Calm,-,N/A,Snow,Light Snow,0,2014-01-19 01:15:00
8:35 PM,30.2,23.0,75,29.93,2.5,Calm,Calm,-,N/A,Snow,Light Snow,0,2014-01-19 01:35:00
8:55 PM,30.2,23.0,75,29.92,1.8,East,3.5,-,N/A,Snow,Light Snow,100,2014-01-19 01:55:00
9:15 PM,28.4,24.8,86,29.91,1.2,Calm,Calm,-,N/A,Snow,Light Snow,0,2014-01-19 02:15:00
9:35 PM,28.4,24.8,86,29.91,2.5,Calm,Calm,-,N/A,Snow,Light Snow,0,2014-01-19 02:35:00
9:55 PM,28.4,24.8,86,29.90,5.0,East,3.5,-,N/A,Snow,Light Snow,100,2014-01-19 02:55:00
10:15 PM,30.2,24.8,80,29.89,5.0,Calm,Calm,-,N/A,Snow,Light Snow,0,2014-01-19 03:15:00
10:35 PM,30.2,24.8,80,29.89,5.0,ESE,3.5,-,N/A,Snow,Light Snow,120,2014-01-19 03:35:00
10:55 PM,30.2,24.8,80,29.87,10.0,East,3.5,-,N/A,Snow,Light Snow,90,2014-01-19 03:55:00
11:15 PM,30.2,26.6,86,29.85,10.0,Calm,Calm,-,N/A,,Overcast,0,2014-01-19 04:15:00
11:35 PM,30.2,26.6,86,29.84,10.0,Calm,Calm,-,N/A,,Overcast,0,2014-01-19 04:35:00
11:55 PM,30.2,26.6,86,29.83,10.0,Calm,Calm,-,N/A,,Overcast,0,2014-01-19 04:55:00